Weather in Bajil

Yemen     15°01′56″N   43°15′45″E
temp.,
°C
wind,
m/s
gust,
m/s
humid.,
%
clouds,
%
prec.,
mm/h
press.,
hPa
HPBL,
m
6 may, thu
thu600:00+32se1240100 0.0 1008220
03:00+31nw1249100 0.0 100684
06:00+31se2253100 0.0 1009142
09:00+32s5547100 0.0 1010862
12:00+35ssw4339100 0.0 10091742
15:00+35wsw644198 0.0 10071479
18:00+32sw445299 1.5 1008645
21:00+30ene336098 5.3 1010375
7 may, fri
fri700:00+32nnw115291 0.0 1009292
03:00+30nw225983 0.0 1008193
06:00+30e0061100 0.0 100936
09:00+30ssw225991 0.0 1011485
12:00+32s434991 0.0 1010821
15:00+35w11396 0.0 10081356
18:00+34wsw424378 0.0 1008745
21:00+30sse0156100 1.9 101096
8 may, sat
sat800:00+31nne1256100 0.0 1010202
03:00+31nw335898 0.0 1008245
06:00+31s235899 0.0 1009104
09:00+31ssw335665 0.0 1011602
12:00+34n2246100 0.0 10101226
15:00+34nw4444100 0.0 10071340
18:00+33nw664752 0.1 10081072
21:00+32nnw124946 0.7 1009379
9 may, sun
sun900:00+31nnw115297 0.0 100986
03:00+30nne015662 0.0 100826
06:00+30wsw005835 0.0 100812
09:00+33sw114739 0.0 1009667
12:00+37w32335 0.0 10081870
15:00+37w86345 0.0 10061478
18:00+34wnw444086 0.6 1007498
21:00+33e224420 2.0 1008578
10 may, mon
mon1000:00+32n23485 0.0 1007216
03:00+30nnw225015 0.1 100648
06:00+30n1150100 0.0 100814
09:00+33sw1139100 0.0 1009552
12:00+37wsw322699 0.0 10081434
15:00+38w642697 0.0 10061671
18:00+35wnw43307 0.0 1007738
21:00+34nw333510 0.0 1008283